Weather in Kuyacha

Russia / Altai Krai     51°40′19″N   85°05′16″E
temp.,
°C
wind,
m/s
gust,
m/s
humid.,
%
clouds,
%
prec.,
mm/h
press.,
hPa
HPBL,
m
18 april, sun
sun1801:00−4s119628 0.1 102311
04:00−4sw119711 0.0 102212
07:00−3ssw22968 0.0 102231
10:00+1sw239011 0.0 1020336
13:00+5wsw367510 0.0 1019929
16:00+7wsw495920 0.0 10161534
19:00+6wsw267794 0.0 1015233
22:00+1sse35825 0.0 101555
19 april, mon
mon1901:00+5ssw616620 0.0 1010394
04:00+6sw41061100 0.0 1007282
07:00+4w71394100 1.9 10101035
10:00−3wnw4892100 7.3 1018679
13:00−3wnw3688100 8.5 1020763
16:00−4nnw2391100 2.3 1021584
19:00−5nnw2294100 4.8 1021409
22:00−6sw1195100 0.9 102281
20 april, tue
tue2001:00−7sw1197100 1.1 102330
04:00−8nne2496100 0.7 1024255
07:00−9ne1395100 0.9 1025197
10:00−7nne2382100 0.2 1024757
13:00−6nne3381100 0.6 1024913
16:00−4nne2370100 0.3 10241025
19:00−5ne237193 0.4 1024816
22:00−10ese11888 0.1 102710
21 april, wed
wed2101:00−13se22895 0.1 102712
04:00−13sse22895 0.0 102615
07:00−12sse21865 0.0 102527
10:00−5ne116710 0.0 1023589
13:00−3n216391 0.0 1021955
16:00−1n2259100 0.0 10201191
19:00−3nne3367100 0.0 1021755
22:00−5ene1183100 0.0 102356
22 april, thu
thu2201:00−5nne1282100 0.0 102477
04:00−6n018493 0.0 102665
07:00−6nw118172 0.0 102890
10:00−3n236211 0.0 10291018
13:00−1n3356100 0.1 10301545
16:000n3464100 0.3 10311168
19:00−1n3572100 0.7 1033908
22:00−3n249588 0.7 1036325